Weather History for Chamberlain, SD

Change the Weather History Date:

Friday, January 24, 2014

  Actual Average Record
Temperature  
Mean Temperature 38 °F -  
Max Temperature 50 °F 27 °F 57 °F (2005)
Min Temperature 27 °F 9 °F -11 °F (2008)
Degree Days  
Heating Degree Days 26    
Moisture  
Dew Point 25 °F    
Average Humidity 56    
Maximum Humidity 73    
Minimum Humidity 38    
Precipitation  
Precipitation 0.02 in - - ()
Sea Level Pressure  
Sea Level Pressure 29.91 in    
Wind  
Wind Speed 16 mph (WNW)    
Max Wind Speed 23 mph    
Max Gust Speed 33 mph    
Averages and records for this station are not official NWS values.
T = Trace of Precipitation, MM = Missing Value Source: NWS Daily Summary

Daily Weather History Graph

Daily Weather History Graph

Search for Another Location

Airport:

Trip Planner

Search our weather history database for the weather conditions in past years. The results will help you decide how hot, cold, wet, or windy it might be!

Date:

Astronomy

Jan. 24, 2014 Rise Set
Actual Time 8:01 AM CST 5:37 PM CST
Civil Twilight 7:30 AM CST 6:08 PM CST
Nautical Twilight 6:55 AM CST 6:43 PM CST
Astronomical Twilight 6:21 AM CST 7:17 PM CST
Moon 1:28 AM CST (1/24) 11:59 AM CST (1/24)
Length of Visible Light 10h 37m
Length of Day
9h 35m
Last Quarter, 44% of the Moon is Illuminated
Jan 24
Last Quarter
Jan 30
New
Feb 6
First Quarter
Feb 14
Full
Feb 22
Last Quarter

Hourly Weather History & Observations

Time (CST) Temp. Windchill Dew Point Humidity Pressure Visibility Wind Dir Wind Speed Gust Speed Precip Events Conditions
12:52 AM 27.0 °F 14.7 °F 9.0 °F 47% 30.13 in - WSW 16.1 mph - N/A   Unknown
1:52 AM 28.9 °F 16.5 °F 10.0 °F 45% 30.07 in - West 18.4 mph - N/A   Unknown
2:52 AM 28.9 °F 16.9 °F 10.9 °F 47% 30.04 in - WSW 17.3 mph - N/A   Unknown
3:52 AM 32.0 °F 21.2 °F 10.9 °F 42% 30.01 in - WSW 16.1 mph - N/A   Unknown
4:52 AM 34.0 °F 24.2 °F 10.9 °F 38% 29.99 in - West 15.0 mph - N/A   Unknown
5:52 AM 35.1 °F 25.9 °F 12.9 °F 40% 29.99 in - WNW 13.8 mph - N/A   Unknown
6:52 AM 37.0 °F 28.9 °F 17.1 °F 44% 29.98 in - WNW 12.7 mph - N/A   Unknown
7:52 AM 37.0 °F 28.9 °F 21.0 °F 52% 29.96 in - WNW 12.7 mph - N/A   Unknown
8:52 AM 39.0 °F 31.8 °F 26.1 °F 60% 29.96 in - NW 11.5 mph - N/A   Unknown
9:52 AM 39.9 °F 31.4 °F 28.0 °F 63% 29.95 in - NW 16.1 mph 27.6 mph N/A   Unknown
10:52 AM 42.1 °F 34.2 °F 28.0 °F 58% 29.93 in - NW 16.1 mph 26.5 mph 0.01 in   Unknown
11:52 AM 43.0 °F 35.7 °F 28.9 °F 58% 29.91 in - WNW 15.0 mph 20.7 mph N/A   Unknown
12:52 PM 45.0 °F 37.4 °F 30.0 °F 56% 29.88 in - NW 18.4 mph 32.2 mph N/A   Unknown
1:52 PM 46.9 °F - 30.9 °F 54% 29.83 in - WNW 20.7 mph 27.6 mph N/A   Unknown
2:52 PM 45.0 °F 38.5 °F 36.0 °F 71% 29.79 in - WNW 13.8 mph 24.2 mph N/A   Unknown
3:52 PM 46.9 °F - 33.1 °F 59% 29.74 in - West 17.3 mph - 0.01 in   Unknown
4:52 PM 50.0 °F - 32.0 °F 50% 29.73 in - WNW 23.0 mph 31.1 mph N/A   Unknown
5:52 PM 48.9 °F - 32.0 °F 52% 29.77 in - NNW 20.7 mph 33.4 mph N/A   Unknown
6:52 PM 46.9 °F - 33.1 °F 59% 29.81 in - NW 18.4 mph 26.5 mph N/A   Unknown
7:52 PM 45.0 °F 37.1 °F 33.1 °F 63% 29.83 in - NNW 19.6 mph 26.5 mph N/A   Unknown
8:52 PM 43.0 °F 35.7 °F 33.1 °F 68% 29.86 in - North 15.0 mph 24.2 mph N/A   Unknown
9:52 PM 42.1 °F 34.5 °F 33.1 °F 70% 29.87 in - NNW 15.0 mph 25.3 mph N/A   Unknown
10:52 PM 41.0 °F 31.6 °F 30.9 °F 67% 29.88 in - NNW 20.7 mph 28.8 mph N/A   Unknown
11:52 PM 41.0 °F 34.3 °F 33.1 °F 73% 29.89 in - WNW 11.5 mph - N/A   Unknown